Time,TemperatureF,DewpointF,PressureIn,WindDirection,WindDirectionDegrees,WindSpeedMPH,WindSpeedGustMPH,Humidity,HourlyPrecipIn,Conditions,Clouds,dailyrainin,SoftwareType,DateUTC
2013-01-13 00:00:00,25.8,11.9,30.19,NNE,22,2.0,4.0,55,0.00,,,0.00,VWS V14.01,2013-01-13 07:00:00,
2013-01-13 00:05:00,25.7,11.4,30.19,NNE,22,2.0,4.0,54,0.00,,,0.00,VWS V14.01,2013-01-13 07:05:00,
2013-01-13 00:10:00,25.7,11.4,30.19,NNE,22,1.0,3.0,54,0.00,,,0.00,VWS V14.01,2013-01-13 07:10:00,
2013-01-13 00:15:00,25.7,11.8,30.19,NNE,22,0.0,2.0,55,0.00,,,0.00,VWS V14.01,2013-01-13 07:15:00,
2013-01-13 00:20:00,25.5,11.6,30.19,NNE,22,1.0,3.0,55,0.00,,,0.00,VWS V14.01,2013-01-13 07:20:00,
2013-01-13 00:25:00,25.4,11.5,30.19,NNE,22,0.0,2.0,55,0.00,,,0.00,VWS V14.01,2013-01-13 07:25:00,
2013-01-13 00:30:00,25.2,11.7,30.19,NNE,22,0.0,2.0,56,0.00,,,0.00,VWS V14.01,2013-01-13 07:30:00,
2013-01-13 00:35:00,25.0,11.9,30.19,NNE,22,0.0,1.0,57,0.00,,,0.00,VWS V14.01,2013-01-13 07:35:00,
2013-01-13 00:40:00,24.8,11.7,30.19,NNE,22,0.0,1.0,57,0.00,,,0.00,VWS V14.01,2013-01-13 07:40:00,
2013-01-13 00:45:00,24.6,11.9,30.19,NNE,22,1.0,2.0,58,0.00,,,0.00,VWS V14.01,2013-01-13 07:45:00,
2013-01-13 00:50:00,24.4,12.1,30.19,NNE,22,1.0,3.0,59,0.00,,,0.00,VWS V14.01,2013-01-13 07:50:00,
2013-01-13 00:55:00,24.3,11.7,30.19,NNE,22,1.0,2.0,58,0.00,,,0.00,VWS V14.01,2013-01-13 07:55:00,
2013-01-13 01:00:00,24.4,11.4,30.19,NNE,22,0.0,2.0,57,0.00,,,0.00,VWS V14.01,2013-01-13 08:00:00,
2013-01-13 01:05:00,24.6,11.6,30.19,NNE,22,1.0,3.0,57,0.00,,,0.00,VWS V14.01,2013-01-13 08:05:00,
2013-01-13 01:10:00,24.9,11.8,30.19,NNE,22,0.0,1.0,57,0.00,,,0.00,VWS V14.01,2013-01-13 08:10:00,
2013-01-13 01:15:00,25.1,11.2,30.19,NNE,22,1.0,2.0,55,0.00,,,0.00,VWS V14.01,2013-01-13 08:15:00,
2013-01-13 01:20:00,25.2,11.3,30.20,NNE,22,0.0,1.0,55,0.00,,,0.00,VWS V14.01,2013-01-13 08:20:00,
2013-01-13 01:25:00,25.2,11.3,30.19,NNE,22,0.0,0.0,55,0.00,,,0.00,VWS V14.01,2013-01-13 08:25:00,
2013-01-13 01:30:00,25.2,10.9,30.19,NNE,22,0.0,1.0,54,0.00,,,0.00,VWS V14.01,2013-01-13 08:30:00,
2013-01-13 01:35:00,25.2,11.3,30.19,NNE,22,0.0,0.0,55,0.00,,,0.00,VWS V14.01,2013-01-13 08:35:00,
2013-01-13 01:40:00,25.2,11.3,30.19,NNE,22,0.0,1.0,55,0.00,,,0.00,VWS V14.01,2013-01-13 08:40:00,
2013-01-13 01:45:00,25.2,10.9,30.19,NNE,22,0.0,1.0,54,0.00,,,0.00,VWS V14.01,2013-01-13 08:45:00,
2013-01-13 01:50:00,25.1,11.2,30.19,NNE,22,0.0,1.0,55,0.00,,,0.00,VWS V14.01,2013-01-13 08:50:00,
2013-01-13 01:55:00,24.9,11.0,30.19,NNE,22,0.0,1.0,55,0.00,,,0.00,VWS V14.01,2013-01-13 08:55:00,
2013-01-13 02:00:00,24.8,11.7,30.19,NNE,22,0.0,1.0,57,0.00,,,0.00,VWS V14.01,2013-01-13 09:00:00,
2013-01-13 02:05:00,24.6,11.2,30.19,NNE,22,0.0,2.0,56,0.00,,,0.00,VWS V14.01,2013-01-13 09:05:00,
2013-01-13 02:10:00,24.5,11.5,30.19,NNE,22,1.0,2.0,57,0.00,,,0.00,VWS V14.01,2013-01-13 09:10:00,
2013-01-13 02:15:00,24.4,11.4,30.19,NNE,22,1.0,2.0,57,0.00,,,0.00,VWS V14.01,2013-01-13 09:15:00,
2013-01-13 02:20:00,24.4,11.0,30.19,NNE,22,1.0,2.0,56,0.00,,,0.00,VWS V14.01,2013-01-13 09:20:00,
2013-01-13 02:25:00,24.5,11.1,30.19,NNE,22,0.0,2.0,56,0.00,,,0.00,VWS V14.01,2013-01-13 09:25:00,
2013-01-13 02:30:00,24.4,11.0,30.19,NNE,22,0.0,0.0,56,0.00,,,0.00,VWS V14.01,2013-01-13 09:30:00,
2013-01-13 02:35:00,24.4,11.0,30.19,NNE,22,0.0,0.0,56,0.00,,,0.00,VWS V14.01,2013-01-13 09:35:00,
2013-01-13 02:40:00,24.2,10.8,30.19,NNE,22,0.0,1.0,56,0.00,,,0.00,VWS V14.01,2013-01-13 09:40:00,
2013-01-13 02:45:00,24.1,11.1,30.19,NNE,22,0.0,1.0,57,0.00,,,0.00,VWS V14.01,2013-01-13 09:45:00,
2013-01-13 02:50:00,24.0,11.8,30.19,NNE,22,0.0,1.0,59,0.00,,,0.00,VWS V14.01,2013-01-13 09:50:00,
2013-01-13 02:55:00,23.9,11.3,30.19,NNE,22,0.0,1.0,58,0.00,,,0.00,VWS V14.01,2013-01-13 09:55:00,
2013-01-13 03:00:00,23.7,11.1,30.19,NNE,22,1.0,2.0,58,0.00,,,0.00,VWS V14.01,2013-01-13 10:00:00,
2013-01-13 03:05:00,23.6,11.0,30.19,NNE,22,0.0,1.0,58,0.00,,,0.00,VWS V14.01,2013-01-13 10:05:00,
2013-01-13 03:10:00,23.5,11.3,30.19,NNE,22,0.0,1.0,59,0.00,,,0.00,VWS V14.01,2013-01-13 10:10:00,
2013-01-13 03:15:00,23.4,11.9,30.19,NNE,22,0.0,1.0,61,0.00,,,0.00,VWS V14.01,2013-01-13 10:15:00,
2013-01-13 03:20:00,23.2,11.4,30.19,NNE,22,0.0,2.0,60,0.00,,,0.00,VWS V14.01,2013-01-13 10:20:00,
2013-01-13 03:25:00,23.1,11.3,30.19,NNE,22,0.0,1.0,60,0.00,,,0.00,VWS V14.01,2013-01-13 10:25:00,
2013-01-13 03:30:00,23.0,11.6,30.19,NNE,22,1.0,2.0,61,0.00,,,0.00,VWS V14.01,2013-01-13 10:30:00,
2013-01-13 03:35:00,22.8,11.4,30.18,NNE,22,1.0,3.0,61,0.00,,,0.00,VWS V14.01,2013-01-13 10:35:00,
2013-01-13 03:40:00,22.7,11.6,30.18,NNE,22,0.0,1.0,62,0.00,,,0.00,VWS V14.01,2013-01-13 10:40:00,
2013-01-13 03:45:00,22.5,11.5,30.18,NNE,22,1.0,2.0,62,0.00,,,0.00,VWS V14.01,2013-01-13 10:45:00,
2013-01-13 03:50:00,22.3,11.3,30.18,NNE,22,1.0,2.0,62,0.00,,,0.00,VWS V14.01,2013-01-13 10:50:00,
2013-01-13 03:55:00,22.2,11.5,30.18,NNE,22,0.0,1.0,63,0.00,,,0.00,VWS V14.01,2013-01-13 10:55:00,
2013-01-13 04:00:00,22.1,11.4,30.18,NNE,22,0.0,0.0,63,0.00,,,0.00,VWS V14.01,2013-01-13 11:00:00,
2013-01-13 04:05:00,21.9,11.6,30.17,NNE,22,0.0,1.0,64,0.00,,,0.00,VWS V14.01,2013-01-13 11:05:00,
2013-01-13 04:10:00,21.8,11.5,30.17,NNE,22,0.0,1.0,64,0.00,,,0.00,VWS V14.01,2013-01-13 11:10:00,
2013-01-13 04:15:00,21.7,11.4,30.17,NNE,22,0.0,1.0,64,0.00,,,0.00,VWS V14.01,2013-01-13 11:15:00,
2013-01-13 04:20:00,21.5,11.2,30.17,NNE,22,1.0,2.0,64,0.00,,,0.00,VWS V14.01,2013-01-13 11:20:00,
2013-01-13 04:25:00,21.4,11.1,30.17,NNE,22,0.0,2.0,64,0.00,,,0.00,VWS V14.01,2013-01-13 11:25:00,
2013-01-13 04:30:00,21.3,11.4,30.18,NNE,22,1.0,2.0,65,0.00,,,0.00,VWS V14.01,2013-01-13 11:30:00,
2013-01-13 04:35:00,21.3,11.4,30.18,NNE,22,2.0,3.0,65,0.00,,,0.00,VWS V14.01,2013-01-13 11:35:00,
2013-01-13 04:40:00,21.3,11.0,30.17,NNE,22,2.0,4.0,64,0.00,,,0.00,VWS V14.01,2013-01-13 11:40:00,
2013-01-13 04:45:00,21.3,11.0,30.17,NNE,22,1.0,3.0,64,0.00,,,0.00,VWS V14.01,2013-01-13 11:45:00,
2013-01-13 04:50:00,21.3,11.4,30.17,NNE,22,0.0,2.0,65,0.00,,,0.00,VWS V14.01,2013-01-13 11:50:00,
2013-01-13 04:55:00,21.3,11.4,30.17,NNE,22,1.0,2.0,65,0.00,,,0.00,VWS V14.01,2013-01-13 11:55:00,
2013-01-13 05:00:00,21.3,11.0,30.17,NNE,22,0.0,0.0,64,0.00,,,0.00,VWS V14.01,2013-01-13 12:00:00,
2013-01-13 05:05:00,21.4,11.1,30.17,NNE,22,0.0,1.0,64,0.00,,,0.00,VWS V14.01,2013-01-13 12:05:00,
2013-01-13 05:10:00,21.5,11.2,30.17,NNE,22,1.0,3.0,64,0.00,,,0.00,VWS V14.01,2013-01-13 12:10:00,
2013-01-13 05:15:00,21.5,11.2,30.17,NNE,22,2.0,4.0,64,0.00,,,0.00,VWS V14.01,2013-01-13 12:15:00,
2013-01-13 05:20:00,21.6,11.3,30.16,NNE,22,2.0,3.0,64,0.00,,,0.00,VWS V14.01,2013-01-13 12:20:00,
2013-01-13 05:25:00,21.7,11.4,30.17,NNE,22,1.0,4.0,64,0.00,,,0.00,VWS V14.01,2013-01-13 12:25:00,
2013-01-13 05:30:00,21.7,11.4,30.17,NNE,22,2.0,4.0,64,0.00,,,0.00,VWS V14.01,2013-01-13 12:30:00,
2013-01-13 05:35:00,21.7,11.8,30.16,NNE,22,3.0,4.0,65,0.00,,,0.00,VWS V14.01,2013-01-13 12:35:00,
2013-01-13 05:40:00,21.8,11.9,30.16,North,0,3.0,5.0,65,0.00,,,0.00,VWS V14.01,2013-01-13 12:40:00,
2013-01-13 05:45:00,22.0,11.7,30.16,North,0,2.0,5.0,64,0.00,,,0.00,VWS V14.01,2013-01-13 12:45:00,
2013-01-13 05:50:00,22.1,11.8,30.17,North,0,0.0,2.0,64,0.00,,,0.00,VWS V14.01,2013-01-13 12:50:00,
2013-01-13 05:55:00,22.1,11.8,30.17,North,0,0.0,3.0,64,0.00,,,0.00,VWS V14.01,2013-01-13 12:55:00,
2013-01-13 06:00:00,22.1,11.4,30.17,North,0,1.0,2.0,63,0.00,,,0.00,VWS V14.01,2013-01-13 13:00:00,
2013-01-13 06:05:00,22.3,11.6,30.17,North,0,1.0,3.0,63,0.00,,,0.00,VWS V14.01,2013-01-13 13:05:00,
2013-01-13 06:10:00,22.6,11.6,30.18,North,0,2.0,3.0,62,0.00,,,0.00,VWS V14.01,2013-01-13 13:10:00,
2013-01-13 06:15:00,22.9,11.5,30.18,North,0,2.0,4.0,61,0.00,,,0.00,VWS V14.01,2013-01-13 13:15:00,
2013-01-13 06:20:00,23.2,11.4,30.18,North,0,2.0,4.0,60,0.00,,,0.00,VWS V14.01,2013-01-13 13:20:00,
2013-01-13 06:25:00,23.4,11.6,30.18,North,0,0.0,3.0,60,0.00,,,0.00,VWS V14.01,2013-01-13 13:25:00,
2013-01-13 06:30:00,23.4,11.9,30.18,North,0,0.0,1.0,61,0.00,,,0.00,VWS V14.01,2013-01-13 13:30:00,
2013-01-13 06:35:00,23.3,11.5,30.18,North,0,0.0,2.0,60,0.00,,,0.00,VWS V14.01,2013-01-13 13:35:00,
2013-01-13 06:40:00,23.0,11.6,30.18,North,0,1.0,2.0,61,0.00,,,0.00,VWS V14.01,2013-01-13 13:40:00,
2013-01-13 06:45:00,22.7,11.3,30.19,North,0,0.0,2.0,61,0.00,,,0.00,VWS V14.01,2013-01-13 13:45:00,
2013-01-13 06:50:00,22.3,11.6,30.19,North,0,0.0,1.0,63,0.00,,,0.00,VWS V14.01,2013-01-13 13:50:00,
2013-01-13 06:55:00,22.0,11.7,30.19,North,0,0.0,1.0,64,0.00,,,0.00,VWS V14.01,2013-01-13 13:55:00,
2013-01-13 07:00:00,21.7,11.4,30.19,North,0,0.0,1.0,64,0.00,,,0.00,VWS V14.01,2013-01-13 14:00:00,
2013-01-13 07:05:00,21.6,11.7,30.19,North,0,0.0,2.0,65,0.00,,,0.00,VWS V14.01,2013-01-13 14:05:00,
2013-01-13 07:10:00,21.4,11.8,30.19,North,0,1.0,2.0,66,0.00,,,0.00,VWS V14.01,2013-01-13 14:10:00,
2013-01-13 07:15:00,21.4,12.2,30.19,North,0,1.0,2.0,67,0.00,,,0.00,VWS V14.01,2013-01-13 14:15:00,
2013-01-13 07:20:00,21.3,11.7,30.19,North,0,1.0,3.0,66,0.00,,,0.00,VWS V14.01,2013-01-13 14:20:00,
2013-01-13 07:25:00,21.3,12.1,30.19,North,0,1.0,3.0,67,0.00,,,0.00,VWS V14.01,2013-01-13 14:25:00,
2013-01-13 07:30:00,21.3,12.1,30.19,North,0,1.0,2.0,67,0.00,,,0.00,VWS V14.01,2013-01-13 14:30:00,
2013-01-13 07:35:00,21.5,12.3,30.20,North,0,1.0,3.0,67,0.00,,,0.00,VWS V14.01,2013-01-13 14:35:00,
2013-01-13 07:46:00,22.1,12.1,30.20,North,0,2.0,4.0,65,0.00,,,0.00,VWS V14.01,2013-01-13 14:46:00,
2013-01-13 07:51:00,23.3,11.9,30.20,North,360,0.0,2.0,61,0.00,,,0.00,VWS V14.01,2013-01-13 14:51:00,
2013-01-13 07:56:00,23.8,12.3,30.19,North,360,0.0,4.0,61,0.00,,,0.00,VWS V14.01,2013-01-13 14:56:00,
2013-01-13 08:01:00,24.3,12.4,30.20,North,360,1.0,3.0,60,0.00,,,0.00,VWS V14.01,2013-01-13 15:01:00,
2013-01-13 08:06:00,24.7,12.4,30.19,North,360,5.0,5.0,59,0.00,,,0.00,VWS V14.01,2013-01-13 15:06:00,
2013-01-13 08:11:00,25.3,12.2,30.20,North,360,2.0,5.0,57,0.00,,,0.00,VWS V14.01,2013-01-13 15:11:00,
2013-01-13 08:16:00,25.8,12.3,30.20,North,360,0.0,3.0,56,0.00,,,0.00,VWS V14.01,2013-01-13 15:16:00,
2013-01-13 08:21:00,26.4,13.2,30.20,North,360,2.0,4.0,57,0.00,,,0.00,VWS V14.01,2013-01-13 15:21:00,
2013-01-13 08:26:00,27.0,13.4,30.20,North,360,0.0,4.0,56,0.00,,,0.00,VWS V14.01,2013-01-13 15:26:00,
2013-01-13 08:31:00,27.6,13.6,30.20,North,360,3.0,4.0,55,0.00,,,0.00,VWS V14.01,2013-01-13 15:31:00,
2013-01-13 08:36:00,28.4,13.5,30.20,North,360,1.0,4.0,53,0.00,,,0.00,VWS V14.01,2013-01-13 15:36:00,
2013-01-13 08:41:00,29.2,13.8,30.20,North,360,2.0,5.0,52,0.00,,,0.00,VWS V14.01,2013-01-13 15:41:00,
2013-01-13 08:46:00,30.1,13.7,30.20,North,360,0.0,4.0,50,0.00,,,0.00,VWS V14.01,2013-01-13 15:46:00,
2013-01-13 08:51:00,30.9,14.0,30.20,North,360,1.0,4.0,49,0.00,,,0.00,VWS V14.01,2013-01-13 15:51:00,
2013-01-13 08:56:00,31.6,13.7,30.21,North,360,0.0,2.0,47,0.00,,,0.00,VWS V14.01,2013-01-13 15:56:00,
2013-01-13 09:01:00,32.3,12.8,30.20,North,360,0.0,1.0,44,0.00,,,0.00,VWS V14.01,2013-01-13 16:01:00,
2013-01-13 09:06:00,32.9,12.9,30.21,North,360,0.0,1.0,43,0.00,,,0.00,VWS V14.01,2013-01-13 16:06:00,
2013-01-13 09:11:00,33.5,12.3,30.21,North,360,0.0,2.0,41,0.00,,,0.00,VWS V14.01,2013-01-13 16:11:00,
2013-01-13 09:16:00,34.2,11.8,30.21,North,360,0.0,1.0,39,0.00,,,0.00,VWS V14.01,2013-01-13 16:16:00,
2013-01-13 09:21:00,34.8,12.4,30.21,North,360,0.0,0.0,39,0.00,,,0.00,VWS V14.01,2013-01-13 16:21:00,
2013-01-13 09:26:00,35.5,11.8,30.21,North,360,0.0,2.0,37,0.00,,,0.00,VWS V14.01,2013-01-13 16:26:00,
2013-01-13 09:31:00,36.0,11.0,30.21,North,360,0.0,1.0,35,0.00,,,0.00,VWS V14.01,2013-01-13 16:31:00,
2013-01-13 09:36:00,36.4,12.0,30.21,North,360,0.0,0.0,36,0.00,,,0.00,VWS V14.01,2013-01-13 16:36:00,
2013-01-13 09:41:00,36.9,11.2,30.21,North,360,0.0,0.0,34,0.00,,,0.00,VWS V14.01,2013-01-13 16:41:00,
2013-01-13 09:46:00,37.2,10.8,30.21,North,360,0.0,1.0,33,0.00,,,0.00,VWS V14.01,2013-01-13 16:46:00,
2013-01-13 09:51:00,37.3,11.5,30.20,NNE,21,0.0,1.0,34,0.00,,,0.00,VWS V14.01,2013-01-13 16:51:00,
2013-01-13 09:56:00,37.3,10.9,30.20,NNE,21,1.0,2.0,33,0.00,,,0.00,VWS V14.01,2013-01-13 16:56:00,
2013-01-13 10:01:00,37.3,10.9,30.20,NNE,21,0.0,0.0,33,0.00,,,0.00,VWS V14.01,2013-01-13 17:01:00,
2013-01-13 10:06:00,37.5,11.7,30.20,NNE,22,0.0,1.0,34,0.00,,,0.00,VWS V14.01,2013-01-13 17:06:00,
2013-01-13 10:11:00,37.7,11.2,30.20,NNE,24,0.0,0.0,33,0.00,,,0.00,VWS V14.01,2013-01-13 17:11:00,
2013-01-13 10:16:00,38.0,11.5,30.20,NNE,24,0.0,1.0,33,0.00,,,0.00,VWS V14.01,2013-01-13 17:16:00,
2013-01-13 10:21:00,38.4,11.1,30.20,NNE,24,0.0,0.0,32,0.00,,,0.00,VWS V14.01,2013-01-13 17:21:00,
2013-01-13 10:26:00,39.0,10.9,30.20,NNE,24,0.0,0.0,31,0.00,,,0.00,VWS V14.01,2013-01-13 17:26:00,
2013-01-13 10:31:00,39.5,11.4,30.20,NNE,24,0.0,2.0,31,0.00,,,0.00,VWS V14.01,2013-01-13 17:31:00,
2013-01-13 10:36:00,40.0,10.3,30.19,NNE,24,0.0,1.0,29,0.00,,,0.00,VWS V14.01,2013-01-13 17:36:00,
2013-01-13 10:41:00,40.5,10.8,30.20,NNE,24,0.0,0.0,29,0.00,,,0.00,VWS V14.01,2013-01-13 17:41:00,
2013-01-13 10:46:00,41.4,10.8,30.19,East,86,0.0,1.0,28,0.00,,,0.00,VWS V14.01,2013-01-13 17:46:00,
2013-01-13 10:51:00,42.0,9.6,30.19,East,86,2.0,3.0,26,0.00,,,0.00,VWS V14.01,2013-01-13 17:51:00,
2013-01-13 10:56:00,42.3,10.7,30.19,East,86,0.0,1.0,27,0.00,,,0.00,VWS V14.01,2013-01-13 17:56:00,
2013-01-13 11:01:00,42.7,10.2,30.18,East,86,0.0,0.0,26,0.00,,,0.00,VWS V14.01,2013-01-13 18:01:00,
2013-01-13 11:06:00,43.1,9.7,30.18,East,86,0.0,0.0,25,0.00,,,0.00,VWS V14.01,2013-01-13 18:06:00,
2013-01-13 11:11:00,43.1,8.8,30.18,East,92,2.0,4.0,24,0.00,,,0.00,VWS V14.01,2013-01-13 18:11:00,
2013-01-13 11:16:00,43.0,8.7,30.17,East,92,0.0,0.0,24,0.00,,,0.00,VWS V14.01,2013-01-13 18:16:00,
2013-01-13 11:21:00,43.1,9.7,30.17,East,96,5.0,5.0,25,0.00,,,0.00,VWS V14.01,2013-01-13 18:21:00,
2013-01-13 11:26:00,43.6,11.0,30.17,SW,214,0.0,4.0,26,0.00,,,0.00,VWS V14.01,2013-01-13 18:26:00,
2013-01-13 11:31:00,44.0,10.4,30.17,SSW,212,3.0,5.0,25,0.00,,,0.00,VWS V14.01,2013-01-13 18:31:00,
2013-01-13 11:36:00,44.3,9.8,30.17,SSW,212,1.0,4.0,24,0.00,,,0.00,VWS V14.01,2013-01-13 18:36:00,
2013-01-13 11:41:00,44.9,9.4,30.16,SW,223,0.0,1.0,23,0.00,,,0.00,VWS V14.01,2013-01-13 18:41:00,
2013-01-13 11:46:00,45.2,8.6,30.16,SW,223,1.0,3.0,22,0.00,,,0.00,VWS V14.01,2013-01-13 18:46:00,
2013-01-13 11:51:00,45.4,7.8,30.16,SSW,213,4.0,7.0,21,0.00,,,0.00,VWS V14.01,2013-01-13 18:51:00,
2013-01-13 11:56:00,45.4,7.8,30.15,SSW,198,2.0,6.0,21,0.00,,,0.00,VWS V14.01,2013-01-13 18:56:00,
2013-01-13 12:01:00,45.2,7.6,30.15,South,184,2.0,4.0,21,0.00,,,0.00,VWS V14.01,2013-01-13 19:01:00,
2013-01-13 12:06:00,45.0,8.5,30.14,SSW,209,2.0,5.0,22,0.00,,,0.00,VWS V14.01,2013-01-13 19:06:00,
2013-01-13 12:11:00,44.8,6.2,30.14,SSW,209,1.0,3.0,20,0.00,,,0.00,VWS V14.01,2013-01-13 19:11:00,
2013-01-13 12:16:00,45.0,6.4,30.13,SSW,209,6.0,6.0,20,0.00,,,0.00,VWS V14.01,2013-01-13 19:16:00,
2013-01-13 12:21:00,45.2,6.5,30.12,SSW,206,3.0,4.0,20,0.00,,,0.00,VWS V14.01,2013-01-13 19:21:00,
2013-01-13 12:26:00,45.0,6.4,30.12,SSW,205,0.0,3.0,20,0.00,,,0.00,VWS V14.01,2013-01-13 19:26:00,
2013-01-13 12:31:00,44.9,7.3,30.12,SSW,205,0.0,1.0,21,0.00,,,0.00,VWS V14.01,2013-01-13 19:31:00,
2013-01-13 12:36:00,45.1,6.4,30.11,SSW,205,0.0,1.0,20,0.00,,,0.00,VWS V14.01,2013-01-13 19:36:00,
2013-01-13 12:41:00,45.2,7.6,30.11,SSW,205,5.0,5.0,21,0.00,,,0.00,VWS V14.01,2013-01-13 19:41:00,
2013-01-13 12:46:00,45.7,8.0,30.11,SSW,205,1.0,5.0,21,0.00,,,0.00,VWS V14.01,2013-01-13 19:46:00,
2013-01-13 12:51:00,45.9,8.2,30.11,SSW,212,5.0,8.0,21,0.00,,,0.00,VWS V14.01,2013-01-13 19:51:00,
2013-01-13 12:56:00,46.0,7.2,30.11,SW,216,3.0,6.0,20,0.00,,,0.00,VWS V14.01,2013-01-13 19:56:00,
2013-01-13 13:01:00,46.2,7.4,30.10,SW,217,3.0,6.0,20,0.00,,,0.00,VWS V14.01,2013-01-13 20:01:00,
2013-01-13 13:06:00,46.1,6.2,30.10,SW,217,0.0,2.0,19,0.00,,,0.00,VWS V14.01,2013-01-13 20:06:00,
2013-01-13 13:11:00,46.1,6.2,30.10,SW,230,1.0,2.0,19,0.00,,,0.00,VWS V14.01,2013-01-13 20:11:00,
2013-01-13 13:16:00,45.8,7.0,30.10,SW,230,0.0,2.0,20,0.00,,,0.00,VWS V14.01,2013-01-13 20:16:00,
2013-01-13 13:21:00,45.5,7.8,30.09,SW,228,4.0,5.0,21,0.00,,,0.00,VWS V14.01,2013-01-13 20:21:00,
2013-01-13 13:26:00,46.0,7.2,30.09,SW,223,4.0,6.0,20,0.00,,,0.00,VWS V14.01,2013-01-13 20:26:00,
2013-01-13 13:31:00,46.1,7.3,30.09,SSW,211,7.0,8.0,20,0.00,,,0.00,VWS V14.01,2013-01-13 20:31:00,
2013-01-13 13:36:00,46.0,6.1,30.09,South,186,5.0,5.0,19,0.00,,,0.00,VWS V14.01,2013-01-13 20:36:00,
2013-01-13 13:42:00,46.1,6.2,30.09,SSW,204,3.0,5.0,19,0.00,,,0.00,VWS V14.01,2013-01-13 20:42:00,
2013-01-13 13:47:00,46.1,6.2,30.08,SSW,203,3.0,3.0,19,0.00,,,0.00,VWS V14.01,2013-01-13 20:47:00,
2013-01-13 13:52:00,46.0,6.1,30.08,SSW,193,4.0,7.0,19,0.00,,,0.00,VWS V14.01,2013-01-13 20:52:00,
2013-01-13 13:57:00,46.3,6.3,30.08,SW,222,3.0,6.0,19,0.00,,,0.00,VWS V14.01,2013-01-13 20:57:00,
2013-01-13 14:02:00,46.5,6.5,30.08,SW,232,1.0,3.0,19,0.00,,,0.00,VWS V14.01,2013-01-13 21:02:00,
2013-01-13 14:07:00,46.6,6.6,30.07,SW,219,4.0,8.0,19,0.00,,,0.00,VWS V14.01,2013-01-13 21:07:00,
2013-01-13 14:12:00,46.7,6.6,30.07,West,268,1.0,3.0,19,0.00,,,0.00,VWS V14.01,2013-01-13 21:12:00,
2013-01-13 14:17:00,46.7,6.6,30.07,WSW,245,9.0,12.0,19,0.00,,,0.00,VWS V14.01,2013-01-13 21:17:00,
2013-01-13 14:22:00,46.4,7.5,30.07,SSE,152,6.0,8.0,20,0.00,,,0.00,VWS V14.01,2013-01-13 21:22:00,
2013-01-13 14:27:00,46.3,7.4,30.07,NW,306,3.0,7.0,20,0.00,,,0.00,VWS V14.01,2013-01-13 21:27:00,
2013-01-13 14:32:00,46.2,7.4,30.07,WNW,285,1.0,4.0,20,0.00,,,0.00,VWS V14.01,2013-01-13 21:32:00,
2013-01-13 14:37:00,46.1,8.4,30.08,West,277,2.0,5.0,21,0.00,,,0.00,VWS V14.01,2013-01-13 21:37:00,
2013-01-13 14:42:00,46.0,8.3,30.08,SSW,213,5.0,7.0,21,0.00,,,0.00,VWS V14.01,2013-01-13 21:42:00,
2013-01-13 14:47:00,46.1,8.4,30.08,SSW,213,1.0,4.0,21,0.00,,,0.00,VWS V14.01,2013-01-13 21:47:00,
2013-01-13 14:52:00,46.3,8.5,30.08,West,262,4.0,5.0,21,0.00,,,0.00,VWS V14.01,2013-01-13 21:52:00,
2013-01-13 14:57:00,46.3,8.5,30.08,West,266,1.0,2.0,21,0.00,,,0.00,VWS V14.01,2013-01-13 21:57:00,
2013-01-13 15:02:00,46.2,8.4,30.08,West,279,3.0,5.0,21,0.00,,,0.00,VWS V14.01,2013-01-13 22:02:00,
2013-01-13 15:07:00,46.1,8.4,30.08,SW,223,2.0,4.0,21,0.00,,,0.00,VWS V14.01,2013-01-13 22:07:00,
2013-01-13 15:12:00,46.0,8.3,30.08,WSW,244,1.0,4.0,21,0.00,,,0.00,VWS V14.01,2013-01-13 22:12:00,
2013-01-13 15:17:00,46.0,8.3,30.09,West,265,0.0,1.0,21,0.00,,,0.00,VWS V14.01,2013-01-13 22:17:00,
2013-01-13 15:22:00,46.1,8.4,30.09,SW,215,6.0,11.0,21,0.00,,,0.00,VWS V14.01,2013-01-13 22:22:00,
2013-01-13 15:27:00,46.1,7.3,30.09,West,276,3.0,5.0,20,0.00,,,0.00,VWS V14.01,2013-01-13 22:27:00,
2013-01-13 15:32:00,46.0,7.2,30.09,West,281,1.0,4.0,20,0.00,,,0.00,VWS V14.01,2013-01-13 22:32:00,
2013-01-13 15:37:00,46.0,7.2,30.09,SW,231,3.0,8.0,20,0.00,,,0.00,VWS V14.01,2013-01-13 22:37:00,
2013-01-13 15:42:00,45.9,7.1,30.10,SW,221,0.0,5.0,20,0.00,,,0.00,VWS V14.01,2013-01-13 22:42:00,
2013-01-13 15:47:00,45.7,6.9,30.10,WNW,288,0.0,5.0,20,0.00,,,0.00,VWS V14.01,2013-01-13 22:47:00,
2013-01-13 15:52:00,45.5,6.8,30.10,SW,218,7.0,7.0,20,0.00,,,0.00,VWS V14.01,2013-01-13 22:52:00,
2013-01-13 15:57:00,45.3,6.6,30.10,SW,217,3.0,4.0,20,0.00,,,0.00,VWS V14.01,2013-01-13 22:57:00,
2013-01-13 16:02:00,45.2,6.5,30.10,WSW,255,2.0,5.0,20,0.00,,,0.00,VWS V14.01,2013-01-13 23:02:00,
2013-01-13 16:07:00,45.1,6.4,30.10,WNW,286,0.0,4.0,20,0.00,,,0.00,VWS V14.01,2013-01-13 23:07:00,
2013-01-13 16:12:00,44.6,6.0,30.10,SW,233,4.0,7.0,20,0.00,,,0.00,VWS V14.01,2013-01-13 23:12:00,
2013-01-13 16:17:00,44.1,5.6,30.10,West,271,2.0,6.0,20,0.00,,,0.00,VWS V14.01,2013-01-13 23:17:00,
2013-01-13 16:22:00,44.1,4.5,30.10,SW,222,1.0,5.0,19,0.00,,,0.00,VWS V14.01,2013-01-13 23:22:00,
2013-01-13 16:27:00,44.0,4.4,30.10,SW,218,0.0,6.0,19,0.00,,,0.00,VWS V14.01,2013-01-13 23:27:00,
2013-01-13 16:32:00,43.7,4.2,30.10,SSW,212,5.0,8.0,19,0.00,,,0.00,VWS V14.01,2013-01-13 23:32:00,
2013-01-13 16:37:00,43.4,3.9,30.10,SSW,213,2.0,5.0,19,0.00,,,0.00,VWS V14.01,2013-01-13 23:37:00,
2013-01-13 16:42:00,43.1,2.5,30.10,SW,216,2.0,7.0,18,0.00,,,0.00,VWS V14.01,2013-01-13 23:42:00,
2013-01-13 16:47:00,43.0,3.6,30.10,SW,216,6.0,7.0,19,0.00,,,0.00,VWS V14.01,2013-01-13 23:47:00,
2013-01-13 16:52:00,43.1,3.7,30.10,SW,221,6.0,7.0,19,0.00,,,0.00,VWS V14.01,2013-01-13 23:52:00,
2013-01-13 16:57:00,42.9,2.3,30.10,SW,221,2.0,4.0,18,0.00,,,0.00,VWS V14.01,2013-01-13 23:57:00,
2013-01-13 17:02:00,42.7,2.2,30.10,SW,215,1.0,5.0,18,0.00,,,0.00,VWS V14.01,2013-01-14 00:02:00,
2013-01-13 17:07:00,42.7,2.2,30.10,SW,215,1.0,2.0,18,0.00,,,0.00,VWS V14.01,2013-01-14 00:07:00,
2013-01-13 17:12:00,42.6,2.1,30.10,SW,215,3.0,3.0,18,0.00,,,0.00,VWS V14.01,2013-01-14 00:12:00,
2013-01-13 17:17:00,42.5,3.2,30.10,SW,215,0.0,1.0,19,0.00,,,0.00,VWS V14.01,2013-01-14 00:17:00,
2013-01-13 17:22:00,42.3,3.0,30.10,West,261,0.0,3.0,19,0.00,,,0.00,VWS V14.01,2013-01-14 00:22:00,
2013-01-13 17:27:00,42.1,3.9,30.10,West,273,2.0,3.0,20,0.00,,,0.00,VWS V14.01,2013-01-14 00:27:00,
2013-01-13 17:32:00,41.6,4.6,30.10,NW,325,1.0,6.0,21,0.00,,,0.00,VWS V14.01,2013-01-14 00:32:00,
2013-01-13 17:37:00,40.7,5.8,30.10,NW,321,4.0,6.0,23,0.00,,,0.00,VWS V14.01,2013-01-14 00:37:00,
2013-01-13 17:42:00,39.9,6.9,30.10,NW,324,4.0,7.0,25,0.00,,,0.00,VWS V14.01,2013-01-14 00:42:00,
2013-01-13 17:47:00,39.1,7.1,30.10,NW,325,5.0,7.0,26,0.00,,,0.00,VWS V14.01,2013-01-14 00:47:00,
2013-01-13 17:52:00,38.5,7.4,30.11,NW,325,4.0,7.0,27,0.00,,,0.00,VWS V14.01,2013-01-14 00:52:00,
2013-01-13 17:57:00,38.0,7.0,30.10,NW,324,6.0,8.0,27,0.00,,,0.00,VWS V14.01,2013-01-14 00:57:00,
2013-01-13 18:02:00,37.8,7.6,30.10,NW,314,5.0,5.0,28,0.00,,,0.00,VWS V14.01,2013-01-14 01:02:00,
2013-01-13 18:07:00,37.5,8.1,30.10,NW,304,3.0,7.0,29,0.00,,,0.00,VWS V14.01,2013-01-14 01:07:00,
2013-01-13 18:12:00,37.3,8.0,30.11,NW,311,3.0,5.0,29,0.00,,,0.00,VWS V14.01,2013-01-14 01:12:00,
2013-01-13 18:17:00,37.0,8.5,30.11,NW,313,3.0,6.0,30,0.00,,,0.00,VWS V14.01,2013-01-14 01:17:00,
2013-01-13 18:22:00,36.7,8.2,30.10,NW,317,4.0,5.0,30,0.00,,,0.00,VWS V14.01,2013-01-14 01:22:00,
2013-01-13 18:27:00,36.4,8.7,30.11,NW,318,5.0,6.0,31,0.00,,,0.00,VWS V14.01,2013-01-14 01:27:00,
2013-01-13 18:32:00,36.0,9.0,30.11,NW,320,3.0,5.0,32,0.00,,,0.00,VWS V14.01,2013-01-14 01:32:00,
2013-01-13 18:37:00,35.5,8.6,30.11,NW,320,6.0,6.0,32,0.00,,,0.00,VWS V14.01,2013-01-14 01:37:00,
2013-01-13 18:42:00,34.8,9.3,30.11,NW,321,3.0,5.0,34,0.00,,,0.00,VWS V14.01,2013-01-14 01:42:00,
2013-01-13 18:47:00,34.2,8.8,30.11,NW,321,3.0,3.0,34,0.00,,,0.00,VWS V14.01,2013-01-14 01:47:00,
2013-01-13 18:52:00,33.7,9.0,30.11,NW,321,2.0,4.0,35,0.00,,,0.00,VWS V14.01,2013-01-14 01:52:00,
2013-01-13 18:57:00,33.3,9.2,30.11,NW,321,3.0,3.0,36,0.00,,,0.00,VWS V14.01,2013-01-14 01:57:00,
2013-01-13 19:02:00,33.0,9.6,30.12,NW,321,4.0,4.0,37,0.00,,,0.00,VWS V14.01,2013-01-14 02:02:00,
2013-01-13 19:07:00,32.8,9.4,30.12,NW,321,1.0,3.0,37,0.00,,,0.00,VWS V14.01,2013-01-14 02:07:00,
2013-01-13 19:12:00,32.4,9.6,30.12,NW,321,3.0,5.0,38,0.00,,,0.00,VWS V14.01,2013-01-14 02:12:00,
2013-01-13 19:17:00,32.3,10.1,30.12,North,11,2.0,7.0,39,0.00,,,0.00,VWS V14.01,2013-01-14 02:17:00,
2013-01-13 19:22:00,32.3,10.1,30.12,NNE,28,2.0,3.0,39,0.00,,,0.00,VWS V14.01,2013-01-14 02:22:00,
2013-01-13 19:27:00,32.0,10.4,30.11,NNE,28,0.0,1.0,40,0.00,,,0.00,VWS V14.01,2013-01-14 02:27:00,
2013-01-13 19:32:00,31.5,10.5,30.11,NNE,31,1.0,3.0,41,0.00,,,0.00,VWS V14.01,2013-01-14 02:32:00,
2013-01-13 19:37:00,31.0,10.6,30.11,NNE,21,3.0,5.0,42,0.00,,,0.00,VWS V14.01,2013-01-14 02:37:00,
2013-01-13 19:42:00,30.7,10.9,30.11,NNE,20,4.0,5.0,43,0.00,,,0.00,VWS V14.01,2013-01-14 02:42:00,
2013-01-13 19:47:00,30.7,10.9,30.11,NNE,20,3.0,3.0,43,0.00,,,0.00,VWS V14.01,2013-01-14 02:47:00,
2013-01-13 19:52:00,30.6,11.3,30.11,NNE,14,2.0,5.0,44,0.00,,,0.00,VWS V14.01,2013-01-14 02:52:00,
2013-01-13 19:57:00,30.6,11.3,30.11,NNE,14,2.0,3.0,44,0.00,,,0.00,VWS V14.01,2013-01-14 02:57:00,
2013-01-13 20:02:00,30.5,11.2,30.11,NNE,14,3.0,3.0,44,0.00,,,0.00,VWS V14.01,2013-01-14 03:02:00,
2013-01-13 20:07:00,30.3,11.0,30.11,NNE,14,1.0,4.0,44,0.00,,,0.00,VWS V14.01,2013-01-14 03:07:00,
2013-01-13 20:12:00,30.2,11.4,30.11,NNE,14,1.0,4.0,45,0.00,,,0.00,VWS V14.01,2013-01-14 03:12:00,
2013-01-13 20:17:00,29.9,10.6,30.11,NNE,14,0.0,4.0,44,0.00,,,0.00,VWS V14.01,2013-01-14 03:17:00,
2013-01-13 20:22:00,29.8,10.6,30.11,NNE,14,3.0,4.0,44,0.00,,,0.00,VWS V14.01,2013-01-14 03:22:00,
2013-01-13 20:27:00,29.7,10.5,30.11,NNE,13,2.0,5.0,44,0.00,,,0.00,VWS V14.01,2013-01-14 03:27:00,
2013-01-13 20:32:00,29.6,10.9,30.11,NNE,13,3.0,4.0,45,0.00,,,0.00,VWS V14.01,2013-01-14 03:32:00,
2013-01-13 20:37:00,29.6,10.4,30.11,NNE,13,1.0,3.0,44,0.00,,,0.00,VWS V14.01,2013-01-14 03:37:00,
2013-01-13 20:42:00,29.7,11.0,30.11,NNE,13,1.0,2.0,45,0.00,,,0.00,VWS V14.01,2013-01-14 03:42:00,
2013-01-13 20:47:00,29.6,11.4,30.11,NNE,13,2.0,3.0,46,0.00,,,0.00,VWS V14.01,2013-01-14 03:47:00,
2013-01-13 20:52:00,29.2,11.0,30.10,NNE,13,1.0,2.0,46,0.00,,,0.00,VWS V14.01,2013-01-14 03:52:00,
2013-01-13 20:57:00,28.8,11.1,30.11,North,9,4.0,6.0,47,0.00,,,0.00,VWS V14.01,2013-01-14 03:57:00,
2013-01-13 21:02:00,28.5,11.8,30.10,North,5,3.0,4.0,49,0.00,,,0.00,VWS V14.01,2013-01-14 04:02:00,
2013-01-13 21:07:00,28.1,11.9,30.11,North,5,1.0,4.0,50,0.00,,,0.00,VWS V14.01,2013-01-14 04:07:00,
2013-01-13 21:12:00,27.9,11.7,30.10,North,5,0.0,2.0,50,0.00,,,0.00,VWS V14.01,2013-01-14 04:12:00,
2013-01-13 21:17:00,27.6,11.4,30.10,North,5,2.0,3.0,50,0.00,,,0.00,VWS V14.01,2013-01-14 04:17:00,
2013-01-13 21:22:00,27.5,11.3,30.10,North,5,1.0,2.0,50,0.00,,,0.00,VWS V14.01,2013-01-14 04:22:00,
2013-01-13 21:27:00,27.4,11.2,30.10,North,5,1.0,4.0,50,0.00,,,0.00,VWS V14.01,2013-01-14 04:27:00,
2013-01-13 21:32:00,27.4,11.2,30.10,North,5,0.0,3.0,50,0.00,,,0.00,VWS V14.01,2013-01-14 04:32:00,
2013-01-13 21:37:00,27.3,11.6,30.10,North,5,1.0,2.0,51,0.00,,,0.00,VWS V14.01,2013-01-14 04:37:00,
2013-01-13 21:42:00,27.2,10.6,30.10,North,5,0.0,2.0,49,0.00,,,0.00,VWS V14.01,2013-01-14 04:42:00,
2013-01-13 21:47:00,27.2,10.1,30.11,North,5,0.0,2.0,48,0.00,,,0.00,VWS V14.01,2013-01-14 04:47:00,
2013-01-13 21:52:00,27.2,10.1,30.11,North,5,1.0,3.0,48,0.00,,,0.00,VWS V14.01,2013-01-14 04:52:00,
2013-01-13 21:57:00,27.2,9.6,30.11,North,5,3.0,3.0,47,0.00,,,0.00,VWS V14.01,2013-01-14 04:57:00,
2013-01-13 22:01:00,27.2,9.6,30.11,North,5,0.0,3.0,47,0.00,,,0.00,VWS V14.01,2013-01-14 05:01:00,
2013-01-13 22:06:00,27.3,10.2,30.12,North,5,2.0,3.0,48,0.00,,,0.00,VWS V14.01,2013-01-14 05:06:00,
2013-01-13 22:11:00,27.1,10.0,30.12,North,5,2.0,4.0,48,0.00,,,0.00,VWS V14.01,2013-01-14 05:11:00,
2013-01-13 22:16:00,26.9,9.4,30.12,North,5,1.0,3.0,47,0.00,,,0.00,VWS V14.01,2013-01-14 05:16:00,
2013-01-13 22:21:00,27.0,8.5,30.12,North,5,0.0,2.0,45,0.00,,,0.00,VWS V14.01,2013-01-14 05:21:00,
2013-01-13 22:22:00,27.1,8.6,30.12,North,5,0.0,1.0,45,0.00,,,0.00,VWS V14.01,2013-01-14 05:22:00,
2013-01-13 22:27:00,27.2,9.6,30.12,North,5,1.0,2.0,47,0.00,,,0.00,VWS V14.01,2013-01-14 05:27:00,
2013-01-13 22:32:00,27.2,8.7,30.12,North,5,0.0,2.0,45,0.00,,,0.00,VWS V14.01,2013-01-14 05:32:00,
2013-01-13 22:38:00,27.2,8.7,30.12,North,5,0.0,1.0,45,0.00,,,0.00,VWS V14.01,2013-01-14 05:38:00,
2013-01-13 22:43:00,27.2,9.2,30.12,North,5,0.0,0.0,46,0.00,,,0.00,VWS V14.01,2013-01-14 05:43:00,
2013-01-13 22:48:00,27.0,9.5,30.12,North,5,0.0,0.0,47,0.00,,,0.00,VWS V14.01,2013-01-14 05:48:00,
2013-01-13 22:53:00,26.5,9.9,30.12,North,5,0.0,2.0,49,0.00,,,0.00,VWS V14.01,2013-01-14 05:53:00,
2013-01-13 22:58:00,25.7,9.6,30.12,North,5,0.0,3.0,50,0.00,,,0.00,VWS V14.01,2013-01-14 05:58:00,
2013-01-13 23:03:00,25.2,10.1,30.12,North,5,2.0,2.0,52,0.00,,,0.00,VWS V14.01,2013-01-14 06:03:00,
2013-01-13 23:08:00,24.8,10.9,30.13,North,9,0.0,3.0,55,0.00,,,0.00,VWS V14.01,2013-01-14 06:08:00,
2013-01-13 23:13:00,24.7,10.9,30.12,North,10,3.0,4.0,55,0.00,,,0.00,VWS V14.01,2013-01-14 06:13:00,
2013-01-13 23:18:00,25.1,10.4,30.12,North,10,1.0,4.0,53,0.00,,,0.00,VWS V14.01,2013-01-14 06:18:00,
2013-01-13 23:23:00,25.4,10.7,30.13,North,10,2.0,4.0,53,0.00,,,0.00,VWS V14.01,2013-01-14 06:23:00,
2013-01-13 23:28:00,25.6,10.4,30.13,North,10,1.0,3.0,52,0.00,,,0.00,VWS V14.01,2013-01-14 06:28:00,
2013-01-13 23:33:00,25.6,10.4,30.13,North,10,1.0,3.0,52,0.00,,,0.00,VWS V14.01,2013-01-14 06:33:00,
2013-01-13 23:38:00,25.7,10.1,30.13,North,10,1.0,3.0,51,0.00,,,0.00,VWS V14.01,2013-01-14 06:38:00,
2013-01-13 23:43:00,25.8,10.2,30.13,North,10,2.0,3.0,51,0.00,,,0.00,VWS V14.01,2013-01-14 06:43:00,
2013-01-13 23:48:00,25.7,10.5,30.13,North,10,2.0,4.0,52,0.00,,,0.00,VWS V14.01,2013-01-14 06:48:00,
2013-01-13 23:53:00,25.6,10.4,30.13,North,10,2.0,3.0,52,0.00,,,0.00,VWS V14.01,2013-01-14 06:53:00,
2013-01-13 23:58:00,25.5,9.9,30.14,North,10,0.0,3.0,51,0.00,,,0.00,VWS V14.01,2013-01-14 06:58:00,